• In Belarus
  • List of Countries
  • For 7 days
  • Water Temperature
  • Satellite Maps
  • Weather Map
  • Weather Widgets
  • user-avatar
    Login

    Hourly Weather Canillo

    Today, 12 December, Tuesday

    Time Temperature Precipitation Wind Pressure Humidity
    00:00 -4°C° 0 mm 1 mps 606 mmHg 90%
    01:00 -4°C° 0 mm 1 mps 607 mmHg 90%
    02:00 -4°C° 0 mm 1 mps 607 mmHg 89%
    03:00 -5°C° 0 mm 0 mps 607 mmHg 89%
    04:00 -4°C° 0.1 mm 1 mps 608 mmHg 89%
    05:00 -4°C° 0.1 mm 1 mps 609 mmHg 89%
    06:00 -6°C° 0 mm 2 mps 610 mmHg 89%
    07:00 -5°C° 0.1 mm 2 mps 610 mmHg 87%
    08:00 -5°C° 0.1 mm 2 mps 611 mmHg 85%
    09:00 -5°C° 0.1 mm 2 mps 612 mmHg 82%
    10:00 -4°C° 0 mm 2 mps 613 mmHg 76%
    11:00 -3°C° 0 mm 2 mps 614 mmHg 71%
    12:00 -2°C° 0 mm 2 mps 614 mmHg 65%
    13:00 -3°C° 0 mm 2 mps 615 mmHg 65%
    14:00 -3°C° 0 mm 2 mps 615 mmHg 65%
    15:00 -3°C° 0 mm 2 mps 615 mmHg 65%
    16:00 -5°C° 0 mm 2 mps 615 mmHg 68%
    17:00 -7°C° 0 mm 2 mps 615 mmHg 71%
    18:00 -8°C° 0 mm 2 mps 615 mmHg 75%
    19:00 -9°C° 0 mm 2 mps 615 mmHg 67%
    20:00 -9°C° 0 mm 2 mps 615 mmHg 60%
    21:00 -9°C° 0 mm 2 mps 616 mmHg 52%
    22:00 -9°C° 0 mm 2 mps 616 mmHg 49%
    23:00 -9°C° 0 mm 2 mps 616 mmHg 45%

    Tomorrow, 13 December, Wednesday

    Time Temperature Precipitation Wind Pressure Humidity
    00:00 -9°C° 0 mm 2 mps 616 mmHg 41%
    01:00 -9°C° 0 mm 2 mps 617 mmHg 41%
    02:00 -9°C° 0 mm 2 mps 617 mmHg 40%
    03:00 -8°C° 0 mm 1 mps 617 mmHg 39%
    04:00 -7°C° 0 mm 1 mps 617 mmHg 39%
    05:00 -7°C° 0 mm 1 mps 617 mmHg 40%
    06:00 -7°C° 0 mm 1 mps 617 mmHg 41%
    07:00 -6°C° 0 mm 1 mps 618 mmHg 42%
    08:00 -3°C° 0 mm 1 mps 619 mmHg 43%
    09:00 -1°C° 0 mm 1 mps 620 mmHg 43%
    10:00 0°C° 0 mm 1 mps 620 mmHg 45%
    11:00 +2°C° 0 mm 1 mps 620 mmHg 46%
    12:00 +4°C° 0 mm 1 mps 621 mmHg 47%
    13:00 +4°C° 0 mm 1 mps 620 mmHg 52%
    14:00 +3°C° 0 mm 1 mps 620 mmHg 57%
    15:00 +3°C° 0 mm 1 mps 619 mmHg 62%
    16:00 +2°C° 0 mm 1 mps 619 mmHg 65%
    17:00 +1°C° 0 mm 1 mps 619 mmHg 69%
    18:00 0°C° 0 mm 1 mps 618 mmHg 72%
    19:00 0°C° 0.1 mm 1 mps 619 mmHg 72%
    20:00 +1°C° 0.1 mm 1 mps 619 mmHg 72%
    21:00 +1°C° 0.1 mm 1 mps 619 mmHg 72%
    22:00 +1°C° 0.2 mm 1 mps 618 mmHg 75%
    23:00 +1°C° 0.2 mm 1 mps 618 mmHg 78%

    Day after tomorrow, 14 December, Thursday

    Time Temperature Precipitation Wind Pressure Humidity
    00:00 -1°C° 0.2 mm 2 mps 618 mmHg 81%
    01:00 +1°C° 0 mm 1 mps 618 mmHg 83%
    02:00 +1°C° 0 mm 1 mps 617 mmHg 85%
    03:00 +1°C° 0 mm 1 mps 617 mmHg 87%
    04:00 +1°C° 0.1 mm 1 mps 617 mmHg 87%
    05:00 +1°C° 0.1 mm 1 mps 616 mmHg 88%
    06:00 +1°C° 0.1 mm 1 mps 616 mmHg 89%
    07:00 +2°C° 0.4 mm 1 mps 616 mmHg 89%
    08:00 +2°C° 0.4 mm 1 mps 616 mmHg 89%
    09:00 +3°C° 0.4 mm 1 mps 617 mmHg 89%
    10:00 +4°C° 0.1 mm 1 mps 617 mmHg 87%
    11:00 +5°C° 0.1 mm 1 mps 617 mmHg 85%
    12:00 +6°C° 0.1 mm 1 mps 617 mmHg 83%
    13:00 +6°C° 0.1 mm 1 mps 616 mmHg 84%
    14:00 +5°C° 0.1 mm 1 mps 616 mmHg 85%
    15:00 +5°C° 0.1 mm 1 mps 615 mmHg 86%
    16:00 +4°C° 0.1 mm 1 mps 615 mmHg 88%
    17:00 +4°C° 0.1 mm 1 mps 614 mmHg 89%
    18:00 +3°C° 0.1 mm 1 mps 614 mmHg 90%
    19:00 +3°C° 0 mm 1 mps 614 mmHg 90%
    20:00 +2°C° 0 mm 1 mps 613 mmHg 90%
    21:00 +2°C° 0 mm 1 mps 613 mmHg 89%
    22:00 +2°C° 0 mm 1 mps 613 mmHg 90%
    23:00 +1°C° 0 mm 1 mps 613 mmHg 91%

    15 December, Friday

    Time Temperature Precipitation Wind Pressure Humidity
    00:00 +1°C° 0 mm 1 mps 612 mmHg 92%
    01:00 +1°C° 0.2 mm 1 mps 612 mmHg 93%
    02:00 -1°C° 0.2 mm 2 mps 612 mmHg 94%
    03:00 -1°C° 0.2 mm 2 mps 612 mmHg 95%
    04:00 -1°C° 0.2 mm 2 mps 612 mmHg 94%
    05:00 -1°C° 0.2 mm 2 mps 612 mmHg 94%
    06:00 -1°C° 0.2 mm 3 mps 611 mmHg 93%
    07:00 -1°C° 0.3 mm 3 mps 612 mmHg 92%
    08:00 -1°C° 0.3 mm 3 mps 612 mmHg 90%
    09:00 -1°C° 0.3 mm 3 mps 612 mmHg 89%
    10:00 -1°C° 0.1 mm 3 mps 612 mmHg 83%
    11:00 -1°C° 0.1 mm 3 mps 612 mmHg 77%
    12:00 -1°C° 0.1 mm 4 mps 613 mmHg 71%
    13:00 -1°C° 0.1 mm 3 mps 612 mmHg 69%
    14:00 -1°C° 0.1 mm 3 mps 612 mmHg 67%
    15:00 -1°C° 0.1 mm 3 mps 612 mmHg 64%
    16:00 -2°C° 0.1 mm 3 mps 612 mmHg 70%
    17:00 -5°C° 0.1 mm 3 mps 612 mmHg 75%
    18:00 -6°C° 0.1 mm 3 mps 612 mmHg 80%
    19:00 -6°C° 0 mm 3 mps 612 mmHg 80%
    20:00 -5°C° 0 mm 2 mps 613 mmHg 80%
    21:00 -6°C° 0 mm 2 mps 613 mmHg 79%
    22:00 -6°C° 0 mm 2 mps 613 mmHg 79%
    23:00 -6°C° 0 mm 2 mps 613 mmHg 79%

    16 December, Saturday

    Time Temperature Precipitation Wind Pressure Humidity
    00:00 -7°C° 0 mm 2 mps 613 mmHg 78%
    01:00 -7°C° 0 mm 2 mps 613 mmHg 77%
    02:00 -7°C° 0 mm 2 mps 613 mmHg 76%
    03:00 -7°C° 0 mm 2 mps 613 mmHg 75%
    04:00 -6°C° 0.1 mm 2 mps 613 mmHg 75%
    05:00 -6°C° 0.1 mm 2 mps 614 mmHg 76%
    06:00 -6°C° 0.1 mm 2 mps 614 mmHg 76%
    07:00 -6°C° 0.1 mm 3 mps 614 mmHg 74%
    08:00 -5°C° 0.1 mm 3 mps 615 mmHg 72%
    09:00 -5°C° 0.1 mm 3 mps 616 mmHg 70%
    10:00 -4°C° 0 mm 3 mps 616 mmHg 65%
    11:00 -2°C° 0 mm 3 mps 616 mmHg 60%
    12:00 -2°C° 0 mm 3 mps 617 mmHg 54%
    13:00 -2°C° 0 mm 3 mps 616 mmHg 55%
    14:00 -2°C° 0 mm 3 mps 616 mmHg 56%
    15:00 -3°C° 0 mm 2 mps 616 mmHg 57%
    16:00 -4°C° 0 mm 2 mps 616 mmHg 61%
    17:00 -5°C° 0 mm 2 mps 616 mmHg 66%
    18:00 -6°C° 0 mm 2 mps 616 mmHg 71%
    19:00 -6°C° 0 mm 2 mps 616 mmHg 72%
    20:00 -6°C° 0 mm 2 mps 616 mmHg 73%
    21:00 -6°C° 0 mm 2 mps 617 mmHg 74%
    22:00 -6°C° 0 mm 2 mps 617 mmHg 75%
    23:00 -6°C° 0 mm 2 mps 617 mmHg 76%

    17 December, Sunday

    Time Temperature Precipitation Wind Pressure Humidity
    00:00 -6°C° 0 mm 2 mps 617 mmHg 77%
    01:00 -6°C° 0 mm 2 mps 617 mmHg 77%
    02:00 -6°C° 0 mm 2 mps 617 mmHg 78%
    03:00 -6°C° 0 mm 2 mps 617 mmHg 79%
    04:00 -7°C° 0 mm 2 mps 617 mmHg 80%
    05:00 -7°C° 0 mm 2 mps 618 mmHg 80%
    06:00 -7°C° 0 mm 2 mps 618 mmHg 81%
    07:00 -8°C° 0 mm 3 mps 618 mmHg 77%
    08:00 -7°C° 0 mm 3 mps 619 mmHg 74%
    09:00 -7°C° 0 mm 3 mps 620 mmHg 71%
    10:00 -6°C° 0 mm 3 mps 620 mmHg 67%
    11:00 -5°C° 0 mm 3 mps 620 mmHg 62%
    12:00 -4°C° 0 mm 3 mps 620 mmHg 58%
    13:00 -4°C° 0 mm 3 mps 620 mmHg 58%
    14:00 -4°C° 0 mm 3 mps 620 mmHg 58%
    15:00 -5°C° 0 mm 3 mps 620 mmHg 58%
    16:00 -6°C° 0 mm 3 mps 620 mmHg 63%
    17:00 -8°C° 0 mm 3 mps 620 mmHg 67%
    18:00 -8°C° 0 mm 2 mps 620 mmHg 72%
    19:00 -8°C° 0 mm 2 mps 620 mmHg 70%
    20:00 -9°C° 0 mm 2 mps 620 mmHg 68%
    21:00 -9°C° 0 mm 2 mps 621 mmHg 65%
    22:00 -9°C° 0 mm 2 mps 621 mmHg 63%
    23:00 -9°C° 0 mm 2 mps 621 mmHg 61%
    Show more